Klamath Falls, OR

1:19 AM PDT on September 22, 2017 (GMT -0700)
Klamath Falls International

Weather History for KLMT - May, 2012

Change the Weather History Date:

Thursday, May 3, 2012

  Actual Average Record
Temperature  
Mean Temperature 50 °F 48 °F  
Max Temperature 58 °F 62 °F 82 °F (1992)
Min Temperature 42 °F 34 °F 23 °F (1959)
Degree Days  
Heating Degree Days 15 17  
Month to date heating degree days 62 52  
Since 1 July heating degree days 6205 6371  
Cooling Degree Days 0 0  
Month to date cooling degree days 0 0  
Year to date cooling degree days 0 0  
Moisture  
Dew Point 37 °F    
Average Humidity 68    
Maximum Humidity 89    
Minimum Humidity 43    
Precipitation  
Precipitation 0.06 in 0.07 in 0.58 in (1986)
Month to date precipitation 0.06 0.21  
Year to date precipitation 4.59 6.62  
Sea Level Pressure  
Sea Level Pressure 29.80 in    
Wind  
Wind Speed 13 mph (SW)    
Max Wind Speed 28 mph    
Max Gust Speed 32 mph    
Visibility 10 miles    
Events Rain    
T = Trace of Precipitation, MM = Missing Value Source: NWS Daily Summary

Daily Weather History Graph

Daily Weather History Graph

Search for Another Location

Airport or City:

Trip Planner

Search our weather history database for the weather conditions in past years. The results will help you decide how hot, cold, wet, or windy it might be!

Date:

Astronomy

May. 03, 2012 Rise Set
Actual Time 5:59 AM PDT 8:08 PM PDT
Civil Twilight 5:28 AM PDT 8:39 PM PDT
Nautical Twilight 4:50 AM PDT 9:17 PM PDT
Astronomical Twilight 4:09 AM PDT 9:59 PM PDT
Moon 5:37 PM PDT (5/3) 4:09 AM PDT (5/3)
Length of Visible Light 15h 11m
Length of Day
14h 09m
Waxing Gibbous, 92% of the Moon is Illuminated
May 3
Waxing Gibbous
May 5
Full
May 12
Last Quarter
May 20
New
May 28
First Quarter

Hourly Weather History & Observations

Time (PDT) Temp. Windchill Dew Point Humidity Pressure Visibility Wind Dir Wind Speed Gust Speed Precip Events Conditions
12:53 AM 44.1 °F 37.1 °F 34.0 °F 68% 29.76 in 10.0 mi SW 15.0 mph - 0.00 in Rain Light Rain
1:53 AM 42.1 °F - 37.0 °F 82% 29.73 in 10.0 mi Calm Calm - 0.01 in   Overcast
2:53 AM 42.1 °F 38.4 °F 39.0 °F 89% 29.69 in 10.0 mi SSE 5.8 mph - 0.01 in Rain Light Rain
3:53 AM 44.1 °F 37.7 °F 39.0 °F 82% 29.68 in 10.0 mi South 12.7 mph - 0.01 in Rain Light Rain
4:53 AM 43.0 °F 36.0 °F 37.9 °F 82% 29.66 in 10.0 mi South 13.8 mph - 0.00 in Rain Light Rain
5:53 AM 43.0 °F 35.1 °F 37.0 °F 80% 29.68 in 10.0 mi South 17.3 mph - 0.01 in   Overcast
6:00 AM 42.8 °F 35.1 °F 35.6 °F 76% 29.72 in 10.0 mi South 16.1 mph - N/A   Overcast
6:39 AM 42.8 °F 36.2 °F 35.6 °F 76% 29.72 in 10.0 mi South 12.7 mph - 0.00 in Rain Light Rain
6:53 AM 43.0 °F 35.4 °F 36.0 °F 76% 29.70 in 10.0 mi South 16.1 mph - 0.00 in Rain Light Rain
7:53 AM 44.1 °F 37.4 °F 36.0 °F 73% 29.71 in 10.0 mi South 13.8 mph - 0.00 in Rain Light Rain
8:10 AM 46.4 °F 40.4 °F 37.4 °F 71% 29.75 in 10.0 mi South 13.8 mph - 0.00 in   Mostly Cloudy
8:42 AM 48.2 °F - 37.4 °F 66% 29.75 in 10.0 mi South 13.8 mph - 0.00 in Rain Light Rain
8:53 AM 48.0 °F - 37.9 °F 68% 29.72 in 10.0 mi South 11.5 mph - 0.00 in   Mostly Cloudy
9:53 AM 50.0 °F - 37.0 °F 61% 29.72 in 10.0 mi South 19.6 mph 24.2 mph N/A   Mostly Cloudy
10:53 AM 51.8 °F - 35.6 °F 54% 29.74 in 10.0 mi SSW 19.6 mph 26.5 mph N/A   Mostly Cloudy
11:53 AM 55.0 °F - 36.0 °F 49% 29.74 in 10.0 mi SW 18.4 mph 25.3 mph N/A   Mostly Cloudy
12:47 PM 53.6 °F - 35.6 °F 51% 29.81 in 10.0 mi West 12.7 mph 19.6 mph 0.00 in Rain Light Rain
12:53 PM 54.0 °F - 34.0 °F 47% 29.76 in 10.0 mi West 17.3 mph 23.0 mph 0.00 in Rain Light Rain
1:53 PM 57.9 °F - 35.1 °F 42% 29.78 in 10.0 mi West 17.3 mph 25.3 mph 0.00 in Rain Light Rain
2:37 PM 55.4 °F - 39.2 °F 54% 29.85 in 10.0 mi West 16.1 mph 23.0 mph 0.00 in   Mostly Cloudy
2:53 PM 55.9 °F - 36.0 °F 47% 29.81 in 10.0 mi WSW 13.8 mph 24.2 mph 0.00 in   Mostly Cloudy
3:53 PM 55.0 °F - 37.0 °F 51% 29.81 in 10.0 mi West 23.0 mph 27.6 mph N/A   Mostly Cloudy
4:53 PM 54.0 °F - 37.9 °F 55% 29.83 in 10.0 mi West 16.1 mph 25.3 mph N/A   Mostly Cloudy
5:53 PM 52.0 °F - 37.9 °F 59% 29.86 in 10.0 mi West 13.8 mph - N/A   Mostly Cloudy
5:57 PM 51.8 °F - 37.4 °F 58% 29.90 in 10.0 mi West 16.1 mph - 0.00 in Rain Light Rain
6:38 PM 51.8 °F - 41.0 °F 67% 29.91 in 10.0 mi West 10.4 mph - 0.00 in   Mostly Cloudy
6:53 PM 52.0 °F - 39.9 °F 63% 29.88 in 10.0 mi WNW 9.2 mph - 0.00 in   Mostly Cloudy
7:49 PM 48.2 °F - 39.2 °F 71% 29.93 in 10.0 mi SW 13.8 mph - N/A   Mostly Cloudy
7:53 PM 48.0 °F - 39.0 °F 71% 29.90 in 10.0 mi SW 17.3 mph 23.0 mph N/A   Mostly Cloudy
8:53 PM 46.9 °F - 39.9 °F 77% 29.91 in 10.0 mi WSW 11.5 mph - N/A   Mostly Cloudy
9:53 PM 42.1 °F - 37.9 °F 85% 29.94 in 10.0 mi Calm Calm - N/A   Mostly Cloudy
10:32 PM 44.6 °F 40.7 °F 39.2 °F 81% 29.97 in 10.0 mi West 6.9 mph - 0.00 in Rain Light Rain
10:43 PM 44.6 °F 41.4 °F 39.2 °F 81% 29.97 in 10.0 mi West 5.8 mph - 0.00 in Rain Light Rain
10:53 PM 43.0 °F 39.5 °F 39.0 °F 86% 29.94 in 10.0 mi WNW 5.8 mph - 0.00 in   Overcast
11:53 PM 42.1 °F 39.2 °F 39.0 °F 89% 29.93 in 10.0 mi West 4.6 mph - 0.01 in   Overcast